Time,TemperatureF,DewpointF,PressureIn,WindDirection,WindDirectionDegrees,WindSpeedMPH,WindSpeedGustMPH,Humidity,HourlyPrecipIn,Conditions,Clouds,dailyrainin,SoftwareType,DateUTC
2013-07-31 00:03:00,80.3,67.0,30.02,SE,136,0.0,-999.0,65,-99.99,,,0.00,weatherlink.com 1.10,2013-07-31 06:03:00,
2013-07-31 00:18:00,79.8,68.0,30.03,SSE,158,0.0,-999.0,67,-99.99,,,0.00,weatherlink.com 1.10,2013-07-31 06:18:00,
2013-07-31 00:33:00,79.3,68.0,30.02,SW,216,0.0,-999.0,68,-99.99,,,0.00,weatherlink.com 1.10,2013-07-31 06:33:00,
2013-07-31 00:48:00,78.9,68.0,30.02,SSW,194,0.0,-999.0,70,-99.99,,,0.00,weatherlink.com 1.10,2013-07-31 06:48:00,
2013-07-31 01:03:00,78.5,68.0,30.02,WSW,242,0.0,-999.0,71,-99.99,,,0.00,weatherlink.com 1.10,2013-07-31 07:03:00,
2013-07-31 01:18:00,78.1,68.0,30.03,SW,220,0.0,-999.0,71,-99.99,,,0.00,weatherlink.com 1.10,2013-07-31 07:18:00,
2013-07-31 01:33:00,77.9,68.0,30.03,SSW,209,0.0,-999.0,71,-99.99,,,0.00,weatherlink.com 1.10,2013-07-31 07:33:00,
2013-07-31 01:48:00,77.8,68.0,30.02,SW,219,0.0,-999.0,71,-99.99,,,0.00,weatherlink.com 1.10,2013-07-31 07:48:00,
2013-07-31 02:03:00,77.7,68.0,30.02,SSE,165,0.0,-999.0,71,-99.99,,,0.00,weatherlink.com 1.10,2013-07-31 08:03:00,
2013-07-31 02:18:00,77.5,68.0,30.02,SW,235,0.0,-999.0,72,-99.99,,,0.00,weatherlink.com 1.10,2013-07-31 08:18:00,
2013-07-31 02:33:00,77.2,67.0,30.02,SSW,192,0.0,-999.0,71,-99.99,,,0.00,weatherlink.com 1.10,2013-07-31 08:33:00,
2013-07-31 02:48:00,76.8,66.0,30.02,SE,141,0.0,-999.0,70,-99.99,,,0.00,weatherlink.com 1.10,2013-07-31 08:48:00,
2013-07-31 03:04:00,76.6,67.0,30.02,WSW,238,0.0,-999.0,71,-99.99,,,0.00,weatherlink.com 1.10,2013-07-31 09:04:00,
2013-07-31 03:19:00,76.2,66.0,30.01,ESE,122,0.0,-999.0,71,-99.99,,,0.00,weatherlink.com 1.10,2013-07-31 09:19:00,
2013-07-31 03:34:00,75.8,66.0,30.02,WSW,242,0.0,-999.0,72,-99.99,,,0.00,weatherlink.com 1.10,2013-07-31 09:34:00,
2013-07-31 03:49:00,75.5,66.0,30.02,SW,231,0.0,-999.0,73,-99.99,,,0.00,weatherlink.com 1.10,2013-07-31 09:49:00,
2013-07-31 04:04:00,75.2,66.0,30.02,SW,215,0.0,-999.0,74,-99.99,,,0.00,weatherlink.com 1.10,2013-07-31 10:04:00,
2013-07-31 04:19:00,74.8,66.0,30.02,SW,225,0.0,-999.0,75,-99.99,,,0.00,weatherlink.com 1.10,2013-07-31 10:19:00,
2013-07-31 04:34:00,74.4,67.0,30.02,WSW,242,0.0,-999.0,77,-99.99,,,0.00,weatherlink.com 1.10,2013-07-31 10:34:00,
2013-07-31 04:49:00,74.0,67.0,30.02,SW,227,0.0,-999.0,78,-99.99,,,0.00,weatherlink.com 1.10,2013-07-31 10:49:00,
2013-07-31 05:04:00,73.7,67.0,30.02,SW,234,0.0,-999.0,79,-99.99,,,0.00,weatherlink.com 1.10,2013-07-31 11:04:00,
2013-07-31 05:19:00,73.4,67.0,30.03,WSW,243,0.0,-999.0,79,-99.99,,,0.00,weatherlink.com 1.10,2013-07-31 11:19:00,
2013-07-31 05:34:00,73.1,66.0,30.03,WSW,243,0.0,-999.0,79,-99.99,,,0.00,weatherlink.com 1.10,2013-07-31 11:34:00,
2013-07-31 05:49:00,72.8,66.0,30.04,WSW,240,0.0,-999.0,80,-99.99,,,0.00,weatherlink.com 1.10,2013-07-31 11:49:00,
2013-07-31 06:04:00,72.6,66.0,30.04,SW,223,0.0,-999.0,80,-99.99,,,0.00,weatherlink.com 1.10,2013-07-31 12:04:00,
2013-07-31 06:19:00,72.7,66.0,30.04,SW,227,0.0,-999.0,80,-99.99,,,0.00,weatherlink.com 1.10,2013-07-31 12:19:00,
2013-07-31 06:34:00,72.9,66.0,30.05,SW,230,0.0,-999.0,80,-99.99,,,0.00,weatherlink.com 1.10,2013-07-31 12:34:00,
2013-07-31 06:49:00,73.2,66.0,30.05,SW,234,0.0,-999.0,79,-99.99,,,0.00,weatherlink.com 1.10,2013-07-31 12:49:00,
2013-07-31 07:04:00,73.5,67.0,30.05,SW,236,0.0,-999.0,79,-99.99,,,0.00,weatherlink.com 1.10,2013-07-31 13:04:00,
2013-07-31 07:19:00,74.0,67.0,30.06,SW,222,0.0,-999.0,78,-99.99,,,0.00,weatherlink.com 1.10,2013-07-31 13:19:00,
2013-07-31 07:34:00,74.5,67.0,30.06,SW,232,0.0,-999.0,76,-99.99,,,0.00,weatherlink.com 1.10,2013-07-31 13:34:00,
2013-07-31 07:49:00,75.0,67.0,30.06,SW,234,0.0,-999.0,75,-99.99,,,0.00,weatherlink.com 1.10,2013-07-31 13:49:00,
2013-07-31 08:04:00,75.8,66.0,30.06,SW,224,0.0,-999.0,72,-99.99,,,0.00,weatherlink.com 1.10,2013-07-31 14:04:00,
2013-07-31 08:19:00,76.6,66.0,30.07,SW,217,0.0,-999.0,69,-99.99,,,0.00,weatherlink.com 1.10,2013-07-31 14:19:00,
2013-07-31 08:34:00,77.2,65.0,30.07,SSW,213,0.0,-999.0,66,-99.99,,,0.00,weatherlink.com 1.10,2013-07-31 14:34:00,
2013-07-31 08:49:00,78.1,65.0,30.06,WSW,246,0.0,-999.0,65,-99.99,,,0.00,weatherlink.com 1.10,2013-07-31 14:49:00,
2013-07-31 09:04:00,79.1,64.0,30.06,WSW,245,0.0,-999.0,61,-99.99,,,0.00,weatherlink.com 1.10,2013-07-31 15:04:00,
2013-07-31 09:19:00,80.6,64.0,30.06,South,169,0.0,-999.0,57,-99.99,,,0.00,weatherlink.com 1.10,2013-07-31 15:19:00,
2013-07-31 09:34:00,82.5,64.0,30.06,SW,228,0.0,-999.0,53,-99.99,,,0.00,weatherlink.com 1.10,2013-07-31 15:34:00,
2013-07-31 09:49:00,84.0,63.0,30.06,SSE,163,0.0,-999.0,50,-99.99,,,0.00,weatherlink.com 1.10,2013-07-31 15:49:00,
2013-07-31 10:04:00,85.5,65.0,30.05,South,189,0.0,-999.0,50,-99.99,,,0.00,weatherlink.com 1.10,2013-07-31 16:04:00,
2013-07-31 10:19:00,87.3,63.0,30.05,SW,214,0.0,-999.0,45,-99.99,,,0.00,weatherlink.com 1.10,2013-07-31 16:19:00,
2013-07-31 10:34:00,89.0,64.0,30.05,SSW,198,0.0,-999.0,43,-99.99,,,0.00,weatherlink.com 1.10,2013-07-31 16:34:00,
2013-07-31 10:49:00,89.6,62.0,30.04,SSW,198,0.0,-999.0,39,-99.99,,,0.00,weatherlink.com 1.10,2013-07-31 16:49:00,
2013-07-31 11:04:00,89.4,61.0,30.04,SW,230,0.0,-999.0,39,-99.99,,,0.00,weatherlink.com 1.10,2013-07-31 17:04:00,
2013-07-31 11:19:00,89.6,62.0,30.04,SW,234,0.0,-999.0,39,-99.99,,,0.00,weatherlink.com 1.10,2013-07-31 17:19:00,
2013-07-31 11:34:00,90.0,61.0,30.04,NW,319,0.0,-999.0,38,-99.99,,,0.00,weatherlink.com 1.10,2013-07-31 17:34:00,
2013-07-31 11:49:00,91.0,62.0,30.03,South,190,0.0,-999.0,38,-99.99,,,0.00,weatherlink.com 1.10,2013-07-31 17:49:00,
2013-07-31 12:04:00,92.6,62.0,30.03,East,99,5.0,-999.0,36,-99.99,,,0.00,weatherlink.com 1.10,2013-07-31 18:04:00,
2013-07-31 12:19:00,94.0,61.0,30.02,SW,232,0.0,-999.0,33,-99.99,,,0.00,weatherlink.com 1.10,2013-07-31 18:19:00,
2013-07-31 12:34:00,94.3,60.0,30.02,ESE,121,1.0,-999.0,32,-99.99,,,0.00,weatherlink.com 1.10,2013-07-31 18:34:00,
2013-07-31 12:49:00,95.6,60.0,30.01,ESE,104,1.0,-999.0,31,-99.99,,,0.00,weatherlink.com 1.10,2013-07-31 18:49:00,
2013-07-31 13:04:00,95.4,59.0,30.01,ESE,109,0.0,-999.0,30,-99.99,,,0.00,weatherlink.com 1.10,2013-07-31 19:04:00,
2013-07-31 13:19:00,96.1,60.0,30.01,SE,142,0.0,-999.0,30,-99.99,,,0.00,weatherlink.com 1.10,2013-07-31 19:19:00,
2013-07-31 13:34:00,98.4,61.0,30.00,SW,215,0.0,-999.0,29,-99.99,,,0.00,weatherlink.com 1.10,2013-07-31 19:34:00,
2013-07-31 13:49:00,98.3,60.0,30.00,ESE,122,0.0,-999.0,28,-99.99,,,0.00,weatherlink.com 1.10,2013-07-31 19:49:00,
2013-07-31 14:04:00,98.6,61.0,29.99,SW,232,0.0,-999.0,29,-99.99,,,0.00,weatherlink.com 1.10,2013-07-31 20:04:00,
2013-07-31 14:19:00,99.1,60.0,29.98,WNW,284,0.0,-999.0,27,-99.99,,,0.00,weatherlink.com 1.10,2013-07-31 20:19:00,
2013-07-31 14:34:00,98.8,60.0,29.98,North,358,0.0,-999.0,28,-99.99,,,0.00,weatherlink.com 1.10,2013-07-31 20:34:00,
2013-07-31 14:48:00,99.6,61.0,29.97,NNE,23,2.0,-999.0,28,-99.99,,,0.00,weatherlink.com 1.10,2013-07-31 20:48:00,
2013-07-31 15:03:00,99.4,60.0,29.96,North,7,0.0,-999.0,27,-99.99,,,0.00,weatherlink.com 1.10,2013-07-31 21:03:00,
2013-07-31 15:18:00,100.3,61.0,29.96,East,99,2.0,-999.0,27,-99.99,,,0.00,weatherlink.com 1.10,2013-07-31 21:18:00,
2013-07-31 15:48:00,100.7,59.0,29.95,South,181,0.0,-999.0,25,-99.99,,,0.00,weatherlink.com 1.10,2013-07-31 21:48:00,
2013-07-31 16:03:00,100.6,60.0,29.94,ESE,113,0.0,-999.0,26,-99.99,,,0.00,weatherlink.com 1.10,2013-07-31 22:03:00,
2013-07-31 16:18:00,99.7,59.0,29.94,North,9,0.0,-999.0,26,-99.99,,,0.00,weatherlink.com 1.10,2013-07-31 22:18:00,
2013-07-31 16:33:00,100.4,60.0,29.93,NNW,337,0.0,-999.0,26,-99.99,,,0.00,weatherlink.com 1.10,2013-07-31 22:33:00,
2013-07-31 16:48:00,101.0,60.0,29.92,NNW,338,0.0,-999.0,26,-99.99,,,0.00,weatherlink.com 1.10,2013-07-31 22:48:00,
2013-07-31 17:03:00,99.9,59.0,29.92,NNE,20,2.0,-999.0,26,-99.99,,,0.00,weatherlink.com 1.10,2013-07-31 23:03:00,
2013-07-31 17:18:00,99.8,60.0,29.91,ENE,76,4.0,-999.0,27,-99.99,,,0.00,weatherlink.com 1.10,2013-07-31 23:18:00,
2013-07-31 17:33:00,99.3,59.0,29.91,ESE,121,0.0,-999.0,26,-99.99,,,0.00,weatherlink.com 1.10,2013-07-31 23:33:00,
2013-07-31 17:48:00,98.8,60.0,29.91,ESE,115,0.0,-999.0,28,-99.99,,,0.00,weatherlink.com 1.10,2013-07-31 23:48:00,
2013-07-31 18:03:00,98.2,59.0,29.90,SE,129,0.0,-999.0,27,-99.99,,,0.00,weatherlink.com 1.10,2013-08-01 00:03:00,
2013-07-31 18:18:00,97.1,60.0,29.91,SE,140,2.0,-999.0,29,-99.99,,,0.00,weatherlink.com 1.10,2013-08-01 00:18:00,
2013-07-31 18:33:00,96.2,59.0,29.91,ESE,116,2.0,-999.0,29,-99.99,,,0.00,weatherlink.com 1.10,2013-08-01 00:33:00,
2013-07-31 18:48:00,94.9,60.0,29.92,SE,125,2.0,-999.0,31,-99.99,,,0.00,weatherlink.com 1.10,2013-08-01 00:48:00,
2013-07-31 19:03:00,93.9,59.0,29.92,SE,138,0.0,-999.0,31,-99.99,,,0.00,weatherlink.com 1.10,2013-08-01 01:03:00,
2013-07-31 19:18:00,93.1,59.0,29.93,SE,126,0.0,-999.0,32,-99.99,,,0.00,weatherlink.com 1.10,2013-08-01 01:18:00,
2013-07-31 19:33:00,92.0,60.0,29.93,ESE,117,0.0,-999.0,34,-99.99,,,0.00,weatherlink.com 1.10,2013-08-01 01:33:00,
2013-07-31 19:48:00,90.8,59.0,29.93,ESE,123,0.0,-999.0,34,-99.99,,,0.00,weatherlink.com 1.10,2013-08-01 01:48:00,
2013-07-31 20:03:00,89.8,59.0,29.93,ESE,123,0.0,-999.0,35,-99.99,,,0.00,weatherlink.com 1.10,2013-08-01 02:03:00,
2013-07-31 20:18:00,88.7,59.0,29.94,ESE,123,0.0,-999.0,37,-99.99,,,0.00,weatherlink.com 1.10,2013-08-01 02:18:00,
2013-07-31 20:33:00,87.4,60.0,29.94,ESE,123,0.0,-999.0,39,-99.99,,,0.00,weatherlink.com 1.10,2013-08-01 02:33:00,
2013-07-31 20:48:00,86.3,59.0,29.95,ESE,123,0.0,-999.0,40,-99.99,,,0.00,weatherlink.com 1.10,2013-08-01 02:48:00,
2013-07-31 21:03:00,85.1,59.0,29.95,ESE,123,0.0,-999.0,41,-99.99,,,0.00,weatherlink.com 1.10,2013-08-01 03:03:00,
2013-07-31 21:18:00,83.9,59.0,29.96,ESE,123,0.0,-999.0,43,-99.99,,,0.00,weatherlink.com 1.10,2013-08-01 03:18:00,
2013-07-31 21:33:00,82.9,59.0,29.96,ESE,123,0.0,-999.0,44,-99.99,,,0.00,weatherlink.com 1.10,2013-08-01 03:33:00,
2013-07-31 21:48:00,81.9,59.0,29.96,ESE,123,0.0,-999.0,46,-99.99,,,0.00,weatherlink.com 1.10,2013-08-01 03:48:00,
2013-07-31 22:03:00,80.9,59.0,29.97,ESE,123,0.0,-999.0,47,-99.99,,,0.00,weatherlink.com 1.10,2013-08-01 04:03:00,
2013-07-31 22:18:00,80.1,59.0,29.97,ESE,123,0.0,-999.0,49,-99.99,,,0.00,weatherlink.com 1.10,2013-08-01 04:18:00,
2013-07-31 22:33:00,79.4,59.0,29.98,ESE,123,0.0,-999.0,50,-99.99,,,0.00,weatherlink.com 1.10,2013-08-01 04:33:00,
2013-07-31 22:48:00,78.7,60.0,29.97,ESE,123,0.0,-999.0,52,-99.99,,,0.00,weatherlink.com 1.10,2013-08-01 04:48:00,
2013-07-31 23:03:00,77.7,59.0,29.98,ESE,123,0.0,-999.0,53,-99.99,,,0.00,weatherlink.com 1.10,2013-08-01 05:03:00,
2013-07-31 23:18:00,77.0,58.0,29.98,ESE,123,0.0,-999.0,53,-99.99,,,0.00,weatherlink.com 1.10,2013-08-01 05:18:00,
2013-07-31 23:33:00,76.4,59.0,29.98,ESE,123,0.0,-999.0,55,-99.99,,,0.00,weatherlink.com 1.10,2013-08-01 05:33:00,
2013-07-31 23:48:00,75.7,59.0,29.98,ESE,123,0.0,-999.0,56,-99.99,,,0.00,weatherlink.com 1.10,2013-08-01 05:48:00,